Weather Service Report


339 
ASUS46 KPQR 060010
RWROR 

OREGON REGIONAL WEATHER ROUNDUP
NATIONAL WEATHER SERVICE PORTLAND OR
400 PM PST MON DEC 05 2016

NOTE: "FAIR" INDICATES FEW OR NO CLOUDS BELOW 12,000 FEET WITH
NO SIGNIFICANT WEATHER AND/OR OBSTRUCTIONS TO VISIBILITY.

ORZ001>013-060100-
NORTHWEST OREGON

  
CITY           SKY/WX    TMP DP  RH WIND       PRES   REMARKS
ASTORIA        LGT RAIN  40  35  83 SE10      30.01S WCI  33          
6HR MIN TEMP:  40; 6HR MAX TEMP:  46; 6HR PCP:  0.04;                

NEWPORT        LGT RAIN  43  37  81 W18G25    30.08S                  
PORTLAND       MOCLDY    38  35  89 S5        30.06S WCI  34          
6HR MIN TEMP:  35; 6HR MAX TEMP:  39; 6HR PCP:  0.11;                

VANCOUVER WA   CLOUDY    39  34  82 S5        30.05S                  
6HR MIN TEMP:  34; 6HR MAX TEMP:  40; 6HR PCP:  0.12;                

SCAPPOOSE      CLOUDY    38  34  85 S3        30.04F                  
6HR MIN TEMP:  36; 6HR MAX TEMP:  40; 6HR PCP: TRACE;                

HILLSBORO      CLOUDY    36  35  96 N3        30.04F                  
6HR MIN TEMP:  32; 6HR MAX TEMP:  38; 6HR PCP:  0.17;                

AURORA         CLOUDY    35  34  96 SE6       30.05F WCI  30          
6HR MIN TEMP:  33; 6HR MAX TEMP:  38;                                

MCMINNVILLE    MOCLDY    37  34  89 S3        30.05F                  
6HR MIN TEMP:  34; 6HR MAX TEMP:  38; 6HR PCP:  0.32;                

SALEM          LGT RAIN  39  36  89 W3        30.05S                  
6HR MIN TEMP:  38; 6HR MAX TEMP:  41; 6HR PCP:  0.22;                

CORVALLIS        N/A     39  36  87 S8        30.06F WCI  34          
EUGENE         LGT RAIN  40  36  86 W8        30.08S WCI  34          
6HR MIN TEMP:  39; 6HR MAX TEMP:  43; 6HR PCP:  0.15;                

$$

ORZ021-028-060100-
SOUTHWEST OREGON

  
CITY           SKY/WX    TMP DP  RH WIND       PRES   REMARKS
NORTH BEND     CLOUDY    48  41  76 W12       30.10F                  
6HR MIN TEMP:  41; 6HR MAX TEMP:  48; 6HR PCP:  0.29;                

BROOKINGS      CLOUDY    46  34  62 CALM      30.15F                  
ROSEBURG       LGT RAIN  43  37  79 SW5       30.09F                  
6HR MIN TEMP:  39; 6HR MAX TEMP:  47; 6HR PCP:  0.01;                

SEXTON SUMMIT  FOG       26  25  96 SW15G22   29.99F VSB 1/2 WCI  14  
6HR MIN TEMP:  27; 6HR MAX TEMP:  33;                                

MEDFORD        CLOUDY    38  32  79 NE5       30.11F WCI  34          
6HR MIN TEMP:  33; 6HR MAX TEMP:  38;                                

$$

ORZ014>016-041-060100-
COLUMBIA GORGE

  
CITY           SKY/WX    TMP DP  RH WIND       PRES   REMARKS
TROUTDALE      CLOUDY    38  35  89 SE5       30.05F WCI  34          
6HR MIN TEMP:  33; 6HR MAX TEMP:  39; 6HR PCP:  0.15;                

THE DALLES     CLOUDY    39  31  72 CALM      30.04F                  
6HR MIN TEMP:  35; 6HR MAX TEMP:  40;                                

$$

ORZ029>031-041-044-049-050-061>064-502-503-505>511-060100-
EASTERN OREGON

  
CITY           SKY/WX    TMP DP  RH WIND       PRES   REMARKS
REDMOND        CLOUDY    35  22  58 SW9       29.92F WCI  28          
6HR MIN TEMP:  31; 6HR MAX TEMP:  37;                                

BEND           PTCLDY    32  25  74 S6        29.92F WCI  26          
PRINEVILLE     MOCLDY    34  23  64 S9        29.92F WCI  26          
KLAMATH FALLS  PTCLDY    33  21  61 W10       30.00S WCI  25          
6HR MIN TEMP:  26; 6HR MAX TEMP:  35;                                

LAKEVIEW       PTCLDY    30  18  59 S6        29.97F WCI  24          
HERMISTON      CLOUDY    39  28  64 S7        30.04F WCI  34          
6HR MIN TEMP:  39; 6HR MAX TEMP:  42; 6HR PCP: TRACE;                

PENDLETON      CLOUDY    35  24  64 W10       30.01S WCI  27          
6HR MIN TEMP:  35; 6HR MAX TEMP:  40; 6HR PCP: TRACE;                

JOHN DAY       CLOUDY    32  19  58 S6        29.95F WCI  27          
MEACHAM        NOT AVBL                                               
LA GRANDE      CLOUDY    28  12  50 S7        29.99F WCI  21          
6HR MIN TEMP:  28; 6HR MAX TEMP:  34;                                

BAKER CITY     PTCLDY    21  15  78 CALM      29.99F                  
6HR MIN TEMP:  17; 6HR MAX TEMP:  24;                                

BURNS          PTCLDY    27  18  69 S9        29.97F WCI  18          
6HR MIN TEMP:  22; 6HR MAX TEMP:  31;                                

ROME             N/A     31  13  47 SE6       29.99F WCI  25          
6HR MIN TEMP:  29; 6HR MAX TEMP:  34;                                

ONTARIO        MOCLDY    35  18  49 E6        30.09F WCI  30          
6HR MIN TEMP:  29; 6HR MAX TEMP:  38;                                

$$
  

Return to Home page


Western Regional Climate Center, wrcc@dri.edu